Weather History for Wooster, OH

Change the Weather History Date:

Saturday, November 3, 2012

  Actual Average Record
Temperature  
Mean Temperature 38 °F -  
Max Temperature 43 °F 53 °F 73 °F (2003)
Min Temperature 33 °F 34 °F 21 °F (2006)
Degree Days  
Heating Degree Days 27    
Moisture  
Dew Point 31 °F    
Average Humidity 80    
Maximum Humidity 92    
Minimum Humidity 65    
Precipitation  
Precipitation 0.40 in - - ()
Sea Level Pressure  
Sea Level Pressure 30.13 in    
Wind  
Wind Speed 5 mph (NW)    
Max Wind Speed 10 mph    
Max Gust Speed -    
Visibility 10 miles    
Events      
Averages and records for this station are not official NWS values.
T = Trace of Precipitation, MM = Missing Value Source: NWS Daily Summary

Daily Weather History Graph

Daily Weather History Graph

Search for Another Location

Airport:

Trip Planner

Search our weather history database for the weather conditions in past years. The results will help you decide how hot, cold, wet, or windy it might be!

Date:

Astronomy

Nov. 03, 2012 Rise Set
Actual Time 8:01 AM EDT 6:20 PM EDT
Civil Twilight 7:32 AM EDT 6:49 PM EDT
Nautical Twilight 6:59 AM EDT 7:21 PM EDT
Astronomical Twilight 6:27 AM EDT 7:53 PM EDT
Moon 9:59 PM EDT (11/3) 12:05 PM EDT (11/3)
Length of Visible Light 11h 16m
Length of Day
10h 19m
Waning Gibbous, 80% of the Moon is Illuminated
Nov 3
Waning Gibbous
Nov 6
Last Quarter
Nov 13
New
Nov 20
First Quarter
Nov 28
Full

Hourly Weather History & Observations

Time (EDT) Temp. Windchill Dew Point Humidity Pressure Visibility Wind Dir Wind Speed Gust Speed Precip Events Conditions
12:25 AM 35.6 °F 30.7 °F 32.0 °F 87% 30.04 in 10.0 mi West 5.8 mph - 0.01 in   Overcast
12:56 AM 36.0 °F 31.1 °F 32.0 °F 86% 30.08 in 10.0 mi WNW 5.8 mph - 0.02 in   Overcast
1:56 AM 36.0 °F 31.1 °F 32.0 °F 86% 30.08 in 10.0 mi West 5.8 mph - 0.01 in   Overcast
2:52 AM 35.6 °F 31.7 °F 32.0 °F 87% 30.05 in 10.0 mi WNW 4.6 mph - 0.02 in   Overcast
2:56 AM 36.0 °F 32.1 °F 32.0 °F 86% 30.09 in 10.0 mi WNW 4.6 mph - 0.02 in   Overcast
3:33 AM 35.6 °F 31.7 °F 32.0 °F 87% 30.06 in 10.0 mi WNW 4.6 mph - 0.01 in   Overcast
3:56 AM 36.0 °F 32.1 °F 32.0 °F 86% 30.09 in 10.0 mi WNW 4.6 mph - 0.01 in   Overcast
4:56 AM 36.0 °F 32.1 °F 32.0 °F 86% 30.09 in 10.0 mi WNW 4.6 mph - 0.02 in   Overcast
5:56 AM 37.0 °F 32.4 °F 30.9 °F 79% 30.11 in 10.0 mi NW 5.8 mph - 0.02 in   Overcast
6:56 AM 37.0 °F 33.3 °F 30.9 °F 79% 30.12 in 10.0 mi NW 4.6 mph - 0.01 in   Overcast
7:56 AM 37.0 °F 32.4 °F 30.0 °F 76% 30.14 in 10.0 mi NW 5.8 mph - 0.02 in   Overcast
8:56 AM 37.0 °F 34.5 °F 30.9 °F 79% 30.15 in 10.0 mi WNW 3.5 mph - 0.02 in   Overcast
9:56 AM 37.9 °F 32.1 °F 30.9 °F 76% 30.17 in 10.0 mi NNW 8.1 mph - 0.01 in   Overcast
10:56 AM 39.9 °F 33.4 °F 32.0 °F 73% 30.17 in 10.0 mi West 10.4 mph - 0.02 in   Overcast
11:56 AM 41.0 °F 35.2 °F 32.0 °F 70% 30.17 in 10.0 mi WNW 9.2 mph - 0.01 in   Overcast
12:56 PM 43.0 °F 37.7 °F 32.0 °F 65% 30.16 in 10.0 mi NW 9.2 mph - 0.02 in   Overcast
1:56 PM 43.0 °F 37.2 °F 32.0 °F 65% 30.15 in 10.0 mi NNW 10.4 mph - 0.01 in   Overcast
2:56 PM 41.0 °F 36.4 °F 30.9 °F 67% 30.14 in 10.0 mi WNW 6.9 mph - 0.02 in   Overcast
3:56 PM 39.9 °F 35.1 °F 30.0 °F 68% 30.15 in 10.0 mi WNW 6.9 mph - 0.01 in   Overcast
4:56 PM 39.9 °F 35.1 °F 30.9 °F 70% 30.15 in 10.0 mi North 6.9 mph - 0.02 in   Overcast
5:32 PM 39.2 °F 35.0 °F 30.2 °F 70% 30.12 in 10.0 mi NNW 5.8 mph - 0.01 in   Overcast
5:56 PM 39.0 °F 34.8 °F 30.9 °F 73% 30.15 in 10.0 mi NNW 5.8 mph - 0.02 in   Overcast
6:56 PM 37.0 °F - 32.0 °F 82% 30.15 in 10.0 mi Calm Calm - 0.02 in   Overcast
7:56 PM 35.1 °F - 30.9 °F 85% 30.17 in 10.0 mi Calm Calm - 0.01 in   Overcast
8:56 PM 36.0 °F - 33.1 °F 89% 30.16 in 10.0 mi Calm Calm - 0.02 in   Overcast
9:56 PM 33.1 °F - 30.9 °F 92% 30.16 in 10.0 mi Calm Calm - 0.02 in   Mostly Cloudy
10:56 PM 33.1 °F - 30.9 °F 92% 30.16 in 10.0 mi Calm Calm - 0.02 in   Overcast
11:56 PM 35.1 °F - 32.0 °F 89% 30.15 in 10.0 mi Calm Calm - 0.02 in   Overcast